Regional Weather Roundup
Issued by NWS State College, PA

Home | Current Version | Previous Version | Text Only | Print | Product List | Glossary Off
Versions: 1 2 3 4 5 6 7 8 9 10 11 12 13 14 15 16 17 18 19 20 21 22 23 24 25 26 27 28 29 30 31 32 33 34 35 36 37 38 39 40 41 42 43 44 45 46 47 48 49 50

000
ASUS41 KCTP 211510
RWRCTP

REGIONAL WEATHER ROUNDUP
NATIONAL WEATHER SERVICE STATE COLLEGE PA
1100 AM EDT SAT APR 21 2018

Note: "fair" indicates few or no clouds below 12,000 feet with no
significant weather and/or obstructions to visibility.

* = STATION THAT DOES NOT REPORT PRECIPITATION /E.G. RAIN...SNOW...ETC/
    THUNDER OR FOG.

PAZ002>004-007>009-013>016-020>023-029>032-211600-
WESTERN PENNSYLVANIA

CITY           SKY/WX    TMP DP  RH WIND       PRES   REMARKS
ERIE           FAIR      43  30  60 NW7       30.49S
MEADVILLE      FAIR      44  25  47 VRB3      30.45F
FRANKLIN*      FAIR      44  22  41 E5        30.46S
NEW CASTLE     FAIR      46  28  49 VRB5      30.47F
BEAVER COUNTY  SUNNY     45  27  49 N3        30.46F
BUTLER*        FAIR      45  26  47 CALM      30.46F
PITTSBURGH INT PTSUNNY   46  27  47 VRB3      30.46S
PITTSBURGH     FAIR      45  28  51 E6        30.45F
INDIANA*       SUNNY     45  25  45 VRB5      30.49S
LATROBE        MOSUNNY   45  25  45 VRB5      30.47F
WASHINGTON CO* FAIR      47  25  42 NE8       30.48S
$$

PAZ004>006-010>012-017>019-024>028-033>037-041-042-045-046-049>053-211600-
CENTRAL PENNSYLVANIA

CITY           SKY/WX    TMP DP  RH WIND       PRES   REMARKS
BRADFORD       FAIR      45  21  38 N3        30.43F
DUBOIS         FAIR      43  22  43 VRB3      30.43F
CLEARFIELD     FAIR      44  23  43 VRB3      30.45F
JOHNSTOWN      FAIR      43  22  43 NW5       30.41F
ALTOONA        FAIR      46  26  45 VRB3      30.45F
STATE COLLEGE  SUNNY     45  25  45 CALM      30.46S
WILLIAMSPORT   FAIR      48  27  44 SW7       30.46S
SELINSGROVE    FAIR      48  28  46 CALM      30.47F
FT INDIANTOWN  FAIR      50  24  36 SW6       30.45F
CAPITAL CITY   FAIR      50  27  40 SW6       30.48S
HARRISBURG     PTSUNNY   48  27  44 NW8       30.47F
YORK           FAIR      48  27  44 W6        30.47F
$$

PAZ038>040-043-044-047-048-054-055-060>062-067>071-211600-
EASTERN PENNSYLVANIA

CITY           SKY/WX    TMP DP  RH WIND       PRES   REMARKS
SCRANTON       FAIR      46  27  47 CALM      30.43F
MOUNT POCONO   FAIR      44  24  45 W13       30.38S
ALLENTOWN      FAIR      50  26  39 W8        30.44F
QUAKERTOWN*    SUNNY     48  28  46 VRB5      30.44F
READING        FAIR      49  30  48 CALM      30.45F
LANCASTER      FAIR      49  29  46 W7        30.46F
COATESVILLE    FAIR      48  27  43 VRB6      30.46F
POTTSTOWN      FAIR      49  27  42 W6        30.46F
BLUE BELL      FAIR      48  30  49 CALM      30.46F
DOYLESTOWN     FAIR      52  27  38 NW8       30.43S
WILLOW GROVE   NOT AVBL
NORTH PHILA    FAIR      55  29  36 W7        30.46S
PHILADELPHIA   PTSUNNY   52  24  33 N9        30.46F
$$




USA.gov is the U.S. government's official web portal to all federal, state and local government web resources and services.